Flag for Germany Weather past 2 weeks in Bad Vilbel, Hesse, Germany

Now
57 °F

Overcast.


Feels Like: 57 °F
Forecast: 60 / 87 °F
Wind: 1 mph from East

Location: Frankfurt / M-Flughafen

Current Time: Aug 2, 2015 at 5:09:53 AM

Latest Report: Aug 2, 2015 at 4:00 AM


Visibility: 31 mi

Pressure: 30.05 "Hg

Humidity: 83%

Dew point: 52 °F

Location of Bad VilbelLocation

Historic Weather in Bad Vilbel — Graph

°F

Bad Vilbel temperature yesterday

Maximum temperature yesterday: 81 °F (at 5:00 PM)
Minimum temperature yesterday: 59 °F (at 6:00 AM)
Average temperature yesterday: 69 °F

Past Weeks' High & Low Weather Summary

 TemperatureHumidityPressure
High91 °F (Jul 22, 2:00 PM)98% (Jul 18, 4:00 AM)30.14 "Hg (Jul 18, 4:00 AM)
Low47 °F (Jul 30, 4:00 AM)26% (Aug 1, 5:00 PM)29.63 "Hg (Jul 27, 8:00 AM)
Average69 °F59%29.90 "Hg
* Reported Jul 18 4:00 AM — Aug 2 4:00 AM, Bad Vilbel, Weather by CustomWeather, © 2015

Note: Actual official high and low records may vary slightly from our data, if they occured in-between our weather recording intervals... More about our weather records

Advertising

Bad Vilbel weather history for previous 24 hours

 ConditionsComfort  
Time TempWeatherWind HumidityBarometerVisibility
4:00 AM
Sun, Aug 2
57 °FOvercast.1 mph83%30.05 "Hg31 mi
1:00 AM61 °FPassing clouds.1 mph72%30.02 "Hg31 mi
11:00 PM
Sat, Aug 1
65 °FPassing clouds.2 mph61%29.99 "Hg31 mi
10:00 PM68 °FPassing clouds.2 mph53%29.98 "Hg31 mi
9:00 PM72 °FPartly sunny.2 mph46%29.95 "Hg31 mi
8:00 PM78 °FPartly sunny.3 mph32%29.93 "Hg31 mi
7:00 PM80 °FPartly sunny.5 mph30%29.93 "Hg31 mi
6:00 PM81 °FScattered clouds.2 mph26%29.91 "Hg31 mi
5:00 PM81 °FScattered clouds.2 mph26%29.92 "Hg31 mi
4:00 PM80 °FScattered clouds.3 mph28%29.93 "Hg31 mi
3:00 PM80 °FScattered clouds.2 mph27%29.92 "Hg31 mi
2:00 PM77 °FScattered clouds.5 mph31%29.94 "Hg31 mi
1:00 PM74 °FScattered clouds.3 mph34%29.95 "Hg28 mi
12:00 PM70 °FScattered clouds.2 mph40%29.96 "Hg28 mi
11:00 AM67 °FScattered clouds.5 mph44%29.97 "Hg28 mi
10:00 AM64 °FPartly sunny.3 mph47%29.97 "Hg28 mi
9:00 AM62 °FOvercast.3 mph50%29.97 "Hg28 mi
8:00 AM60 °FOvercast.2 mph52%29.96 "Hg28 mi
7:00 AM60 °FOvercast.2 mph52%29.95 "Hg28 mi
6:00 AM59 °FOvercast.3 mph52%29.95 "Hg31 mi
Weather by CustomWeather, © 2015

See weather overviewHow to use our weather pages